Theta_e
324 325 327 326 325 325 325 325 326 326 326 326 325 326 326 327 327 328 328 328 328 328 328 328 328 327 328 328 328 328 328 327 327 327 326 326 325 324 324 323 323 324
324 326 326 327 325 324 325 326 326 327 326 326 326 325 325 325 325 326 327 327 327 328 328 328 328 328 328 327 326 327 326 327 326 327 326 325 325 324 324 324 324 324
323 323 324 325 326 325 324 324 324 325 327 326 325 326 325 326 326 326 326 326 326 327 327 327 328 328 327 327 327 327 326 325 325 326 326 325 325 324 324 324 324 323
322 323 323 324 324 324 324 324 324 325 325 324 325 326 326 326 326 326 326 328 326 326 326 326 327 326 326 326 326 326 326 326 326 326 325 324 324 325 323 324 323 322
322 323 323 324 325 325 324 324 325 325 324 324 324 325 325 325 325 325 325 326 326 325 324 325 326 325 326 326 326 326 325 324 324 325 325 324 323 324 323 323 322 322
322 323 324 324 323 323 324 323 324 325 325 324 324 325 325 325 325 324 324 325 325 325 323 324 325 325 326 326 326 325 324 323 323 324 324 323 322 323 323 323 323 322
321 321 322 324 324 324 323 324 325 325 325 326 325 325 325 325 324 324 324 324 323 322 321 322 324 324 325 325 325 324 324 324 323 324 324 323 323 322 323 323 323 323
323 323 324 325 324 323 323 324 324 325 326 325 325 325 325 325 324 323 323 323 322 322 322 322 323 324 324 324 324 323 322 323 323 324 324 323 322 323 323 323 323 323
324 325 325 324 323 323 323 324 324 324 325 325 325 325 325 325 324 323 323 323 322 322 322 322 323 323 323 324 324 323 322 322 323 324 324 323 322 323 323 323 322 323
322 324 325 325 324 323 323 323 324 324 325 325 325 324 324 324 324 323 323 322 322 322 322 322 323 323 323 324 324 323 323 322 322 323 323 323 323 323 323 323 323 322
316 319 323 325 324 323 323 323 323 323 324 324 324 323 323 323 323 323 322 322 322 322 322 321 322 323 323 323 323 323 323 322 322 322 323 323 324 323 324 323 322 323
312 314 316 320 323 324 323 323 323 323 323 323 324 323 322 323 322 322 322 322 322 322 322 321 321 322 323 323 322 321 322 322 322 322 322 323 323 323 324 323 324 323
309 310 312 316 321 323 324 323 323 323 323 323 323 323 322 322 322 322 322 322 322 322 321 321 320 321 322 322 321 320 320 321 321 321 321 321 321 322 323 323 324 324
306 308 310 314 319 323 323 322 322 323 323 323 323 323 322 321 321 321 321 321 321 321 321 319 318 319 319 320 320 319 319 319 320 320 320 320 320 320 321 320 321 321
305 306 309 311 316 321 323 322 322 322 323 323 323 322 321 321 321 321 319 317 316 316 314 315 316 317 317 317 317 317 317 317 318 319 319 319 317 316 317 317 315 315
304 305 306 309 314 319 322 323 322 322 322 323 323 322 322 321 320 318 317 315 312 311 310 311 312 310 311 309 311 316 315 316 316 317 318 317 316 315 314 314 314 315
303 304 305 307 310 315 321 322 322 322 322 322 322 321 320 319 318 314 314 313 312 310 308 308 307 306 300 299 302 306 314 315 315 314 315 316 316 316 313 311 310 310
302 303 304 305 307 309 316 321 321 321 321 321 320 318 317 317 316 314 312 311 310 309 308 306 304 300 295 296 298 300 307 314 314 314 314 315 316 314 311 310 308 307
302 302 303 304 305 308 311 318 320 320 320 319 318 316 314 314 314 312 309 308 308 306 305 303 302 295 294 296 297 299 301 308 314 315 315 314 314 312 309 307 306 306
301 302 302 303 304 305 307 310 316 319 318 317 314 311 311 310 309 308 306 306 306 305 303 302 301 297 294 296 297 297 299 305 313 313 312 311 310 308 307 306 306 307
300 301 301 302 303 303 303 304 303 304 307 307 307 307 306 305 305 304 303 303 303 303 302 300 298 295 295 295 296 298 300 303 310 307 305 302 301 301 301 301 302 303
299 300 301 301 301 301 301 300 300 300 300 301 301 300 300 300 300 301 301 300 300 300 301 300 299 294 294 295 297 298 300 306 304 302 301 299 299 298 298 299 299 301
299 299 300 300 300 300 299 299 298 298 298 299 298 298 297 297 297 297 298 298 299 299 300 299 298 295 294 295 296 297 300 303 301 300 299 298 298 299 299 298 298 297
298 299 299 299 299 299 298 298 299 298 298 298 297 297 296 297 297 297 298 297 297 297 299 298 297 295 293 295 296 297 300 301 300 298 297 296 296 296 297 298 300 301
297 298 298 299 298 298 299 298 298 298 298 299 298 298 297 297 298 297 297 297 297 297 299 297 297 296 293 293 294 296 300 300 299 297 295 295 295 295 296 296 296 296
297 297 298 298 299 299 299 299 299 299 298 298 298 298 297 297 297 296 295 295 296 296 296 296 295 295 294 293 294 295 296 300 299 297 295 294 295 295 295 296 296 296
Wind_Speed
1 1 2 2 3 4 5 5 4 5 5 5 6 4 5 2 1 5 6 5 6 6 6 7 7 7 7 7 6 7 6 7 7 7 8 8 7 8 7 8 7 7
4 6 6 6 5 5 5 5 5 6 5 5 4 2 1 0 1 3 5 6 6 7 7 7 7 8 8 8 7 7 6 6 7 5 7 8 7 8 8 9 8 6
5 5 5 6 7 7 6 4 3 2 3 2 7 6 7 8 7 3 3 5 6 7 7 7 7 7 7 6 7 7 6 7 7 6 8 9 7 7 7 7 6 8
3 4 4 4 3 2 1 3 5 4 3 2 4 6 6 7 7 9 8 7 6 5 6 7 8 8 8 8 7 6 7 7 6 6 7 5 6 6 6 6 6 6
3 3 2 3 2 0 2 6 5 5 4 4 3 3 4 4 6 6 7 8 7 5 4 8 8 8 8 7 7 7 6 6 7 6 6 7 5 6 6 6 7 7
4 2 1 2 5 6 5 4 5 7 8 8 9 7 7 7 7 7 7 7 6 4 6 7 8 8 8 7 7 6 6 6 6 6 6 7 6 5 5 6 7 7
6 5 4 5 8 8 3 5 8 5 5 7 6 7 7 7 7 7 7 6 6 6 3 6 7 7 7 7 7 7 6 7 7 7 7 5 6 6 5 6 7 7
7 4 5 8 10 6 5 8 7 5 5 5 7 7 7 8 8 7 7 7 6 6 6 5 4 6 7 7 7 7 7 6 7 8 7 7 6 7 6 6 7 7
8 6 6 8 9 6 6 7 6 6 6 7 7 6 7 7 7 7 7 8 7 5 5 6 6 6 6 7 7 8 8 7 7 8 8 8 7 7 7 6 6 6
9 8 6 8 7 6 8 8 7 6 6 7 7 6 7 6 6 7 7 8 8 7 6 5 6 6 6 7 8 8 8 8 8 7 7 7 8 7 6 6 7 6
12 11 9 7 6 6 9 9 7 6 5 6 5 6 6 6 6 6 7 8 9 9 8 6 7 7 7 7 6 6 8 8 8 8 7 7 7 7 6 7 7 7
10 10 10 10 7 5 9 8 8 7 5 4 5 6 5 6 8 7 8 9 8 9 8 8 7 8 8 8 7 6 6 7 7 8 7 7 7 7 7 7 7 7
11 11 10 9 9 7 8 8 9 10 10 10 9 8 8 8 7 7 6 8 8 7 8 9 8 7 7 7 6 6 6 7 7 7 7 6 6 6 7 7 7 7
11 12 11 10 9 8 8 7 7 7 7 7 7 8 9 8 8 8 7 7 7 8 7 7 7 7 7 7 7 7 7 6 6 7 6 6 5 5 4 3 3 4
11 11 10 11 10 9 9 8 8 9 8 8 8 8 8 10 8 9 8 7 6 7 7 7 7 7 7 7 7 7 7 7 7 7 7 6 5 4 4 5 4 3
12 11 12 11 10 9 9 8 9 8 8 8 9 9 9 7 8 8 9 9 8 7 7 7 6 5 6 10 9 8 7 6 6 7 7 6 7 6 5 4 4 4
12 12 12 11 10 11 9 8 9 8 8 9 9 9 10 9 10 9 9 8 9 9 8 6 6 5 8 8 10 12 8 7 7 7 6 7 8 8 7 6 5 5
13 14 13 12 10 10 11 9 8 8 9 9 8 8 8 7 10 10 9 8 7 8 8 7 6 5 8 9 9 12 10 8 6 6 6 7 7 8 6 7 6 5
12 13 13 12 12 10 10 9 7 7 8 6 9 9 7 9 9 8 8 7 8 9 8 6 6 5 7 8 9 11 11 8 6 7 8 8 8 8 8 7 5 6
12 12 13 12 12 12 9 11 8 7 6 6 4 5 6 4 4 8 7 7 7 8 7 5 4 3 6 7 7 10 11 10 7 8 7 7 7 7 6 6 6 8
13 13 13 12 12 12 11 9 9 11 10 6 2 3 3 3 2 5 5 5 6 7 7 6 3 4 2 8 10 12 14 11 8 8 9 8 7 6 5 6 6 6
12 12 12 11 11 12 11 10 11 10 9 9 8 5 5 6 6 6 5 5 5 6 7 6 5 8 6 9 14 15 15 9 8 8 10 7 7 6 6 5 5 6
13 12 12 11 11 12 12 11 11 11 11 9 8 6 8 9 8 8 8 7 6 5 8 7 7 9 8 5 12 16 13 9 10 7 7 8 7 6 6 6 6 5
12 12 12 12 11 11 11 11 10 10 10 9 8 7 8 9 9 10 10 10 10 9 6 8 7 9 10 6 3 8 14 11 9 9 8 8 7 6 5 6 8 13
11 12 12 12 10 10 11 11 11 10 9 9 8 6 7 9 11 11 11 10 11 11 15 11 9 10 13 10 9 7 8 10 10 10 10 7 7 7 6 5 6 9
11 12 12 12 11 10 9 10 10 11 11 11 11 7 6 11 12 11 13 11 11 12 12 12 11 9 12 14 11 11 8 7 7 11 11 9 6 6 6 6 6 6
Wind_Direction
220 198 230 211 191 219 245 243 242 251 232 168 184 211 264 315 50 196 201 192 186 182 183 178 165 180 186 209 228 179 178 179 182 176 182 178 183 173 178 178 176 183
208 204 189 180 179 195 217 232 234 220 226 202 130 85 44 119 335 269 226 204 194 187 186 183 181 186 189 192 200 202 170 175 179 173 169 188 182 177 182 181 184 174
209 232 232 207 200 190 190 200 234 298 299 117 124 166 168 168 172 154 264 251 214 195 186 184 180 181 182 186 192 191 175 174 182 174 173 191 175 180 182 174 173 177
273 293 311 318 349 16 120 175 184 198 182 244 216 165 170 181 175 172 172 208 247 232 187 179 185 178 176 174 187 194 183 185 179 173 176 177 181 172 164 160 166 175
294 280 319 332 330 88 175 217 198 154 169 190 213 216 178 187 174 171 177 170 185 236 221 189 186 180 180 185 179 183 184 172 171 178 170 179 178 167 160 157 164 178
302 295 184 225 241 238 221 230 232 203 196 193 195 202 185 183 180 173 170 169 151 158 239 203 186 184 181 181 173 183 170 165 168 167 174 178 171 168 153 167 166 174
302 305 280 250 248 242 217 215 232 218 207 205 185 194 185 179 179 169 156 158 155 151 144 266 189 177 174 170 173 174 172 168 163 169 175 179 166 166 166 166 176 178
298 266 241 248 253 263 234 230 228 210 212 197 203 196 188 184 176 166 157 151 162 163 174 164 254 180 170 167 169 165 166 165 165 170 175 174 172 176 175 183 179 180
318 280 239 246 259 269 261 255 240 222 204 206 209 199 198 190 174 166 156 151 156 164 170 177 192 208 171 170 170 168 165 170 174 174 174 172 181 185 180 172 176 183
322 314 279 243 241 245 251 249 248 236 212 214 208 185 189 190 174 166 162 155 156 167 187 185 180 200 176 180 177 170 167 171 178 183 180 177 180 178 173 174 179 177
335 327 316 296 248 224 233 234 235 237 227 222 212 196 186 173 177 169 162 164 168 172 179 182 185 192 180 186 182 173 171 173 178 181 182 181 179 177 173 174 175 189
328 326 323 316 301 250 241 235 228 228 220 228 225 212 184 188 179 175 174 179 177 175 173 173 182 196 186 184 177 173 173 175 175 179 183 179 179 173 175 176 181 188
321 317 314 312 303 269 250 236 222 219 206 206 187 187 191 188 188 179 182 181 184 175 175 172 181 189 181 177 172 168 172 173 176 182 179 178 175 172 176 184 185 184
318 313 313 308 300 281 260 245 233 227 216 207 199 198 183 183 179 180 186 184 183 184 174 164 171 180 179 179 173 171 170 177 180 181 180 179 170 173 165 148 143 163
320 314 313 310 303 288 264 246 234 222 214 201 198 198 187 181 177 179 165 167 172 168 158 155 172 180 179 177 173 170 169 172 178 181 178 176 154 113 99 106 112 137
327 323 319 315 310 294 268 247 236 228 218 208 200 195 201 183 162 171 167 164 164 160 150 158 168 166 176 181 176 170 172 173 173 177 174 160 136 117 109 115 118 111
335 334 328 324 323 311 279 254 239 226 220 213 202 193 198 181 164 167 168 166 169 160 155 162 159 159 165 183 187 172 165 168 174 174 164 150 145 138 134 127 99 84
341 338 337 331 327 326 307 261 238 226 219 213 199 192 193 184 176 170 164 166 168 156 152 159 162 162 172 185 184 177 171 169 164 152 147 139 136 133 132 133 122 101
345 343 340 339 335 325 326 295 249 237 226 206 204 195 175 179 181 158 156 161 162 151 154 157 160 170 184 189 183 177 167 143 134 134 131 132 130 134 137 136 132 117
350 350 348 344 344 345 346 349 319 264 228 209 187 148 157 155 163 154 145 154 158 144 139 133 136 161 183 179 168 154 137 119 115 108 102 103 110 116 118 127 135 131
352 352 354 350 355 358 3 4 5 10 2 1 69 87 88 121 144 140 129 122 117 117 118 100 41 9 175 148 139 131 117 109 103 93 98 91 83 88 93 101 105 102
350 351 354 356 4 12 14 14 16 13 16 16 353 52 60 66 46 43 68 86 100 107 106 83 48 53 125 143 135 127 113 105 104 99 103 90 84 74 76 71 80 97
355 356 357 1 7 22 22 22 19 18 23 16 15 5 66 53 51 53 41 34 31 69 99 84 66 53 77 128 138 125 109 109 106 95 85 86 79 74 70 74 70 75
356 359 3 4 9 22 29 28 24 29 31 21 22 1 47 62 60 57 47 45 41 24 30 84 72 56 61 56 65 120 124 120 116 104 94 92 89 65 64 59 63 73
357 4 8 5 8 19 30 33 33 26 31 36 23 9 41 65 65 60 53 43 45 40 25 36 57 50 50 51 60 76 104 116 118 114 108 103 102 88 71 72 63 57
3 9 10 10 6 11 21 44 47 41 28 38 33 359 46 61 61 58 62 50 45 48 38 29 28 35 35 50 51 56 71 107 118 119 118 113 98 92 93 66 58 55